Location: Buffign�court
(47.8126°N, 6.0176°E)
Time: 02:49:26
(UTC+00:00)

Meteor 2-5 Rocket - Pass Details

Date: 16 June 2021
Orbit: 833 x 911 km, 81.2° (Epoch: 04 August)

Event Time Altitude Azimuth Distance (km) Brightness Sun altitude
Exits shadow 22:24:26 17° 207° (SSW) 2,003 5.2 -17.0°
Maximum altitude 22:28:43 62° 285° (WNW) 945 4.1 -17.2°
Drops below altitude 10° 22:34:17 10° 6° (N) 2,484 7.2 -17.4°
Sets 22:36:46 0° 10° (N) 3,434 8.1 -17.5°
